User: anonymous   Login
Location: Rometta
(44.2000°N, 10.0500°E)
Time: 20:36:54
(UTC+00:00)
Language:

Cosmos 923 Rocket - Orbit

View from above orbital plane
View from above orbital plane
View from above satellite
View from above satellite

Ground track
Ground track

The orbit data is extracted from the following two-line orbital elements,

1 10121U 77059B   21126.90928709  .00000006  00000-0  11170-4 0  9999
2 10121  74.0495  47.5397 0018016  47.0869 313.1792 14.35984348293392
Epoch (UTC): 06 May 2021 21:49:22
Eccentricity: 0.0018016
inclination: 74.0495°
perigee height: 759 km
apogee height: 784 km
right ascension of ascending node: 47.5397°
argument of perigee: 47.0869°
revolutions per day: 14.35984348
mean anomaly at epoch: 313.1792°
orbit number at epoch: 29339

The dashed part of the orbit path shows where the satellite is in the earth's shadow,  

DLR